PTLCS SBSL-SBSL

Flight info

Callsign PTLCS
Flight time 0h 45m
Altitude 1500
Route DCT
Aircraft B36T/L-BDFGLORY/S

Departure

Time 2026-04-25 16:19
Airport Marechal Cunha Machado International Airport (SBSL)

Arrival

Time 2026-04-25 17:04
Airport Marechal Cunha Machado International Airport (SBSL)
Time Latitude Longitude Altitude Speed Heading
2026-04-25 16:19 -2.58850 -43.92988 995 ft 156 kts 77°
2026-04-25 16:19 -2.58631 -43.91924 990 ft 156 kts 75°
2026-04-25 16:19 -2.58421 -43.90861 991 ft 156 kts 76°
2026-04-25 16:20 -2.57882 -43.88745 992 ft 157 kts 68°
2026-04-25 16:20 -2.57518 -43.87721 994 ft 156 kts 68°
2026-04-25 16:20 -2.56717 -43.85710 994 ft 155 kts 66°
2026-04-25 16:21 -2.56317 -43.84708 994 ft 156 kts 66°
2026-04-25 16:21 -2.55911 -43.83700 988 ft 157 kts 66°
2026-04-25 16:21 -2.55507 -43.82694 998 ft 155 kts 66°
2026-04-25 16:21 -2.55091 -43.81692 998 ft 156 kts 67°
2026-04-25 16:22 -2.54670 -43.80685 997 ft 157 kts 66°
2026-04-25 16:22 -2.54246 -43.79679 996 ft 156 kts 66°
2026-04-25 16:22 -2.53827 -43.78680 997 ft 156 kts 65°
2026-04-25 16:22 -2.53418 -43.77680 1035 ft 152 kts 67°
2026-04-25 16:23 -2.53020 -43.76715 1151 ft 148 kts 66°
2026-04-25 16:23 -2.52622 -43.75766 1274 ft 148 kts 66°
2026-04-25 16:23 -2.52228 -43.74818 1389 ft 147 kts 66°
2026-04-25 16:23 -2.51833 -43.73877 1493 ft 148 kts 66°
2026-04-25 16:24 -2.51429 -43.72906 1487 ft 154 kts 66°
2026-04-25 16:24 -2.51048 -43.71900 1496 ft 156 kts 73°
2026-04-25 16:24 -2.50784 -43.70845 1497 ft 156 kts 75°
2026-04-25 16:24 -2.50527 -43.69787 1501 ft 157 kts 73°
2026-04-25 16:25 -2.50228 -43.68738 1500 ft 157 kts 72°
2026-04-25 16:25 -2.50021 -43.68042 1502 ft 158 kts 72°
2026-04-25 16:25 -2.49598 -43.66625 1497 ft 160 kts 72°
2026-04-25 16:25 -2.49277 -43.65560 1499 ft 160 kts 72°
2026-04-25 16:26 -2.48813 -43.64566 1496 ft 158 kts 54°
2026-04-25 16:26 -2.48261 -43.63619 1492 ft 158 kts 67°
2026-04-25 16:26 -2.48028 -43.62546 1495 ft 158 kts 81°
2026-04-25 16:26 -2.47900 -43.61452 1495 ft 159 kts 82°
2026-04-25 16:27 -2.47775 -43.60350 1496 ft 160 kts 82°
2026-04-25 16:27 -2.47651 -43.59255 1497 ft 161 kts 81°
2026-04-25 16:27 -2.47525 -43.58145 1496 ft 161 kts 82°
2026-04-25 16:27 -2.47397 -43.57020 1498 ft 161 kts 82°
2026-04-25 16:28 -2.47270 -43.55911 1494 ft 160 kts 82°
2026-04-25 16:28 -2.47143 -43.54811 1498 ft 159 kts 82°
2026-04-25 16:28 -2.47018 -43.53713 1496 ft 159 kts 82°
2026-04-25 16:28 -2.46892 -43.52608 1493 ft 160 kts 82°
2026-04-25 16:29 -2.46765 -43.51503 1496 ft 164 kts 82°
2026-04-25 16:29 -2.46624 -43.50316 1498 ft 178 kts 82°
2026-04-25 16:29 -2.46480 -43.49078 1504 ft 185 kts 82°
2026-04-25 16:29 -2.46333 -43.47790 1497 ft 188 kts 82°
2026-04-25 16:30 -2.46008 -43.46531 1538 ft 185 kts 70°
2026-04-25 16:30 -2.45598 -43.45368 1868 ft 171 kts 69°
2026-04-25 16:30 -2.45194 -43.44230 1918 ft 179 kts 70°
2026-04-25 16:30 -2.44769 -43.43036 1893 ft 184 kts 70°
2026-04-25 16:31 -2.44330 -43.41807 1800 ft 192 kts 69°
2026-04-25 16:31 -2.43892 -43.40583 1626 ft 180 kts 69°
2026-04-25 16:31 -2.43496 -43.39436 1489 ft 168 kts 70°
2026-04-25 16:31 -2.43152 -43.38373 1479 ft 154 kts 69°
2026-04-25 16:32 -2.42817 -43.37343 1343 ft 158 kts 70°
2026-04-25 16:32 -2.42500 -43.36359 1226 ft 163 kts 70°
2026-04-25 16:32 -2.42149 -43.35267 1105 ft 167 kts 72°
2026-04-25 16:32 -2.41811 -43.34150 993 ft 168 kts 72°
2026-04-25 16:33 -2.41482 -43.33051 994 ft 163 kts 72°
2026-04-25 16:33 -2.41156 -43.31978 987 ft 159 kts 71°
2026-04-25 16:33 -2.40832 -43.30928 982 ft 156 kts 72°
2026-04-25 16:33 -2.40527 -43.29885 985 ft 156 kts 73°
2026-04-25 16:34 -2.40278 -43.28832 979 ft 155 kts 76°
2026-04-25 16:34 -2.40040 -43.27790 989 ft 154 kts 76°
2026-04-25 16:34 -2.39803 -43.26732 985 ft 158 kts 75°
2026-04-25 16:34 -2.39562 -43.25665 989 ft 158 kts 76°
2026-04-25 16:35 -2.39324 -43.24595 994 ft 158 kts 76°
2026-04-25 16:35 -2.39133 -43.23516 990 ft 159 kts 89°
2026-04-25 16:35 -2.39289 -43.22448 1145 ft 149 kts 99°
2026-04-25 16:35 -2.39458 -43.21464 1374 ft 138 kts 97°
2026-04-25 16:36 -2.39663 -43.20536 1660 ft 141 kts 103°
2026-04-25 16:36 -2.39745 -43.20226 1764 ft 144 kts 103°
2026-04-25 16:36 -2.40167 -43.18527 2305 ft 154 kts 102°
2026-04-25 16:36 -2.40431 -43.17456 2483 ft 167 kts 103°
2026-04-25 16:37 -2.40756 -43.16296 2496 ft 180 kts 115°
2026-04-25 16:37 -2.41666 -43.15429 2499 ft 188 kts 153°
2026-04-25 16:37 -2.42906 -43.15028 2498 ft 188 kts 175°
2026-04-25 16:37 -2.44135 -43.15372 2494 ft 188 kts 215°
2026-04-25 16:38 -2.44898 -43.16416 2489 ft 187 kts 248°
2026-04-25 16:38 -2.45298 -43.17653 2493 ft 187 kts 255°
2026-04-25 16:38 -2.45553 -43.18926 2496 ft 187 kts 262°
2026-04-25 16:38 -2.45693 -43.20220 2494 ft 187 kts 268°
2026-04-25 16:39 -2.45715 -43.21518 2492 ft 187 kts 274°
2026-04-25 16:39 -2.45536 -43.22800 2490 ft 186 kts 282°
2026-04-25 16:39 -2.45290 -43.24069 2491 ft 186 kts 282°
2026-04-25 16:39 -2.45042 -43.25339 2492 ft 186 kts 282°
2026-04-25 16:40 -2.44701 -43.26584 2490 ft 185 kts 286°
2026-04-25 16:40 -2.44505 -43.27858 2488 ft 187 kts 271°
2026-04-25 16:40 -2.44641 -43.29149 2489 ft 187 kts 261°
2026-04-25 16:40 -2.44859 -43.30429 2491 ft 187 kts 261°
2026-04-25 16:41 -2.45060 -43.31713 2493 ft 187 kts 262°
2026-04-25 16:41 -2.45122 -43.32131 2495 ft 187 kts 262°
2026-04-25 16:41 -2.45631 -43.35561 2491 ft 187 kts 262°
2026-04-25 16:42 -2.45822 -43.36843 2490 ft 186 kts 262°
2026-04-25 16:42 -2.46013 -43.38127 2491 ft 187 kts 262°
2026-04-25 16:42 -2.46204 -43.39411 2490 ft 187 kts 262°
2026-04-25 16:42 -2.46395 -43.40698 2488 ft 187 kts 262°
2026-04-25 16:43 -2.46586 -43.41981 2491 ft 185 kts 262°
2026-04-25 16:43 -2.46774 -43.43251 2487 ft 184 kts 262°
2026-04-25 16:43 -2.46962 -43.44523 2490 ft 186 kts 263°
2026-04-25 16:43 -2.47154 -43.45809 2495 ft 188 kts 262°
2026-04-25 16:44 -2.47347 -43.47107 2492 ft 189 kts 262°
2026-04-25 16:44 -2.47540 -43.48405 2492 ft 187 kts 262°
2026-04-25 16:44 -2.47727 -43.49670 2489 ft 181 kts 262°
2026-04-25 16:44 -2.47910 -43.50906 2486 ft 180 kts 262°
2026-04-25 16:45 -2.48094 -43.52139 2481 ft 179 kts 263°
2026-04-25 16:45 -2.48276 -43.53368 2481 ft 178 kts 262°
2026-04-25 16:45 -2.48459 -43.54592 2480 ft 178 kts 262°
2026-04-25 16:45 -2.48640 -43.55813 2479 ft 177 kts 262°
2026-04-25 16:46 -2.48821 -43.57033 2479 ft 177 kts 262°
2026-04-25 16:46 -2.49002 -43.58252 2482 ft 177 kts 262°
2026-04-25 16:46 -2.49184 -43.59476 2481 ft 178 kts 263°
2026-04-25 16:46 -2.49246 -43.59892 2482 ft 179 kts 262°
2026-04-25 16:47 -2.49549 -43.61937 2480 ft 178 kts 262°
2026-04-25 16:47 -2.49732 -43.63161 2475 ft 178 kts 262°
2026-04-25 16:47 -2.49913 -43.64387 2473 ft 179 kts 262°
2026-04-25 16:47 -2.50096 -43.65615 2475 ft 178 kts 262°
2026-04-25 16:48 -2.50279 -43.66845 2479 ft 180 kts 262°
2026-04-25 16:48 -2.50463 -43.68084 2480 ft 180 kts 262°
2026-04-25 16:48 -2.50646 -43.69315 2480 ft 179 kts 262°
2026-04-25 16:48 -2.50827 -43.70540 2479 ft 178 kts 262°
2026-04-25 16:49 -2.51008 -43.71761 2475 ft 177 kts 262°
2026-04-25 16:49 -2.51190 -43.72984 2475 ft 178 kts 262°
2026-04-25 16:49 -2.51373 -43.74216 2476 ft 179 kts 262°
2026-04-25 16:49 -2.51556 -43.75447 2478 ft 179 kts 262°
2026-04-25 16:50 -2.51739 -43.76678 2475 ft 179 kts 262°
2026-04-25 16:50 -2.51921 -43.77909 2477 ft 179 kts 262°
2026-04-25 16:50 -2.52103 -43.79133 2476 ft 177 kts 262°
2026-04-25 16:50 -2.52223 -43.79940 2476 ft 178 kts 262°
2026-04-25 16:51 -2.52466 -43.81578 2471 ft 178 kts 262°
2026-04-25 16:51 -2.52584 -43.82384 2479 ft 177 kts 262°
2026-04-25 16:51 -2.52766 -43.83604 2480 ft 178 kts 261°
2026-04-25 16:51 -2.52888 -43.84421 2424 ft 182 kts 261°
2026-04-25 16:52 -2.53141 -43.86123 2262 ft 186 kts 262°
2026-04-25 16:52 -2.53333 -43.87411 2145 ft 188 kts 263°
2026-04-25 16:52 -2.53525 -43.88707 2024 ft 188 kts 263°
2026-04-25 16:52 -2.53709 -43.89969 1903 ft 180 kts 263°
2026-04-25 16:53 -2.54070 -43.92392 1651 ft 173 kts 262°
2026-04-25 16:53 -2.54245 -43.93577 1527 ft 172 kts 263°
2026-04-25 16:53 -2.54420 -43.94756 1402 ft 171 kts 264°
2026-04-25 16:54 -2.54628 -43.95915 1278 ft 169 kts 258°
2026-04-25 16:54 -2.54926 -43.97045 1155 ft 168 kts 256°
2026-04-25 16:54 -2.55226 -43.98171 1024 ft 167 kts 256°
2026-04-25 16:54 -2.55522 -43.99281 983 ft 163 kts 257°
2026-04-25 16:55 -2.55823 -44.00359 988 ft 161 kts 257°
2026-04-25 16:55 -2.56123 -44.01439 984 ft 162 kts 257°
2026-04-25 16:55 -2.56424 -44.02508 980 ft 162 kts 256°
2026-04-25 16:55 -2.56715 -44.03588 981 ft 160 kts 256°
2026-04-25 16:56 -2.56997 -44.04673 982 ft 158 kts 257°
2026-04-25 16:56 -2.57309 -44.05726 979 ft 158 kts 250°
2026-04-25 16:56 -2.57729 -44.06719 986 ft 156 kts 249°
2026-04-25 16:56 -2.58128 -44.07740 983 ft 155 kts 250°
2026-04-25 16:57 -2.58503 -44.08748 982 ft 155 kts 251°
2026-04-25 16:57 -2.58749 -44.09415 983 ft 154 kts 251°
2026-04-25 16:57 -2.59238 -44.10748 983 ft 154 kts 250°
2026-04-25 16:57 -2.59607 -44.11750 982 ft 154 kts 251°
2026-04-25 16:58 -2.59975 -44.12752 981 ft 153 kts 251°
2026-04-25 16:58 -2.60341 -44.13750 984 ft 153 kts 251°
2026-04-25 16:58 -2.60710 -44.14752 984 ft 154 kts 251°
2026-04-25 16:58 -2.61079 -44.15756 985 ft 154 kts 250°
2026-04-25 16:59 -2.61448 -44.16762 985 ft 154 kts 250°
2026-04-25 16:59 -2.61818 -44.17767 986 ft 154 kts 250°
2026-04-25 16:59 -2.62188 -44.18771 986 ft 153 kts 251°
2026-04-25 16:59 -2.62556 -44.19774 986 ft 154 kts 251°
2026-04-25 17:00 -2.62925 -44.20782 981 ft 155 kts 251°
2026-04-25 17:00 -2.63296 -44.21793 984 ft 155 kts 250°
2026-04-25 17:00 -2.63670 -44.22808 983 ft 156 kts 250°
2026-04-25 17:00 -2.64046 -44.23829 985 ft 157 kts 250°
2026-04-25 17:01 -2.64410 -44.24824 984 ft 149 kts 251°
2026-04-25 17:01 -2.64752 -44.25780 980 ft 142 kts 256°
2026-04-25 17:01 -2.64637 -44.26693 978 ft 132 kts 305°
2026-04-25 17:01 -2.63927 -44.27204 978 ft 126 kts 347°
2026-04-25 17:02 -2.63093 -44.27089 980 ft 121 kts 29°
2026-04-25 17:02 -2.62486 -44.26583 950 ft 99 kts 43°
2026-04-25 17:02 -2.62025 -44.26181 825 ft 81 kts 37°
2026-04-25 17:02 -2.61733 -44.25964 743 ft 77 kts 34°
2026-04-25 17:03 -2.61170 -44.25534 588 ft 77 kts 33°
2026-04-25 17:03 -2.60762 -44.25204 477 ft 74 kts 36°
2026-04-25 17:03 -2.60353 -44.24874 365 ft 77 kts 33°
2026-04-25 17:03 -2.59936 -44.24538 284 ft 76 kts 36°
2026-04-25 17:04 -2.59530 -44.24207 169 ft 73 kts 35°
2026-04-25 17:04 -2.59193 -44.23936 155 ft 49 kts 41°
2026-04-25 17:04 -2.58996 -44.23774 156 ft 26 kts 39°
2026-04-25 17:04 -2.58839 -44.23649 157 ft 32 kts 40°
2026-04-25 17:05 -2.58658 -44.23510 159 ft 28 kts 30°
2026-04-25 17:05 -2.58445 -44.23477 157 ft 21 kts 248°
2026-04-25 17:05 -2.58506 -44.23641 158 ft 25 kts 249°
2026-04-25 17:06 -2.58562 -44.23796 158 ft 24 kts 249°
2026-04-25 17:06 -2.58621 -44.23957 159 ft 23 kts 249°
2026-04-25 17:06 -2.58608 -44.24036 159 ft 14 kts 339°
2026-04-25 17:06 -2.58533 -44.24088 159 ft 12 kts 290°
2026-04-25 17:07 -2.58546 -44.24088 159 ft 0 kts 87°
2026-04-25 17:10 -2.58546 -44.24089 159 ft 0 kts 87°